This is the latest recevied weather packets stored in our database for station/object NE1CU. If no packets are shown the sender has not sent any weather packets the latest 10 day(s).
| Time | Temp. | Humidity | Pressure | Rain* | Wind** | Luminosity | Snow |
|---|---|---|---|---|---|---|---|
| 1777567373 | 11.11° C | 88% | 1006.5 hPa | 0 mm | - | 159 W/m² | - |
| 1777567071 | 11.11° C | 89% | 1006.5 hPa | 0 mm | - | 193 W/m² | - |
| 1777566769 | 11.11° C | 88% | 1006.7 hPa | 0 mm | - | 203 W/m² | - |
| 1777566466 | 11.11° C | 88% | 1006.7 hPa | 0 mm | - | 134 W/m² | - |
| 1777566164 | 11.11° C | 89% | 1007 hPa | 0 mm | - | 165 W/m² | - |
| 1777565860 | 11.11° C | 89% | 1006.9 hPa | 0 mm | - | 173 W/m² | - |
| 1777565556 | 10.56° C | 90% | 1007.1 hPa | 0 mm | - | 186 W/m² | - |
| 1777565253 | 10.56° C | 89% | 1007.5 hPa | 0 mm | - | 140 W/m² | - |
| 1777564949 | 11.11° C | 89% | 1007.1 hPa | 0 mm | - | 153 W/m² | - |
| 1777564644 | 11.11° C | 91% | 1007.3 hPa | 0 mm | - | 237 W/m² | - |
| 1777564340 | 10.56° C | 91% | 1007.6 hPa | 0 mm | - | 378 W/m² | - |
| 1777564036 | 10.56° C | 91% | 1007.5 hPa | 0 mm | - | 198 W/m² | - |
| 1777563732 | 10.56° C | 91% | 1007.5 hPa | 0 mm | - | 138 W/m² | - |
| 1777563428 | 10.56° C | 91% | 1007.6 hPa | 0 mm | - | 194 W/m² | - |
| 1777563123 | 10.56° C | 90% | 1007.6 hPa | 0 mm | - | 115 W/m² | - |
| 1777562819 | 10.56° C | 91% | 1007.5 hPa | 0 mm | - | 99 W/m² | - |
| 1777562517 | 10.56° C | 91% | 1007.4 hPa | 0 mm | - | 137 W/m² | - |
| 1777562214 | 10.56° C | 91% | 1007.6 hPa | 0 mm | - | 145 W/m² | - |
| 1777561912 | 10.56° C | 91% | 1007.3 hPa | 0 mm | - | 149 W/m² | - |
| 1777561608 | 10.56° C | 91% | 1007.6 hPa | 0 mm | - | 161 W/m² | - |
| 1777561304 | 10.56° C | 92% | 1007.6 hPa | 0 mm | - | 145 W/m² | - |
| 1777561004 | 10.56° C | 92% | 1007.5 hPa | 0 mm | - | 127 W/m² | - |
| 1777560699 | 10.56° C | 92% | 1007.4 hPa | 0 mm | - | 162 W/m² | - |
| 1777560398 | 10.56° C | 93% | 1007.4 hPa | 0 mm | - | 132 W/m² | - |
| 1777560095 | 10° C | 93% | 1007.4 hPa | 0 mm | - | 181 W/m² | - |
* Rain latest hour (hover to see other rain measurements)
** Current wind speed in m/s (hover to see current wind gust speed)